Notices

What's New in latest Release from April 7th, 2021:

- Updated Glossary, including Speed of Maximum Gust, and Total Hourly Precipitation

- Updated national and regional climate services offices contacts and prices information

- Addition of station inventory lists for 1981-2010, 1971-2000, and 1961-1990 Normals.

If you haven't already, please take our survey and provide feedback about our website: https://eccc.sondage-survey.ca/f/LanguageSelection.aspx?s=442ca660-fcf1-47c0-95a9-59707d6fd709

Hourly Data Report for April 30, 2021

KUGAARUK CLIMATE
NUNAVUT
Current Station Operator: ECCC - MSC

68°32'15.060" N
89°47'47.020" W
15.80 m
2303094
71407
NBB

Download Data

Hourly Data (April 2021)
Hourly Data Report for April 30, 2021
TIME
LST
Temp Definition
°C
Dew Point Definition
°C
Rel Hum Definition
%
Precip. Amount Definition
mm

Wind Dir Definition
10's deg

Wind Spd Definition
km/h
Visibility Definition
km
Stn Press Definition
kPa
Hmdx Definition


Wind Chill Definition


Weather Definition


00:00 -20.5 -22.7 83 0.0 7 10   102.38   -28 LegendNANA
01:00 -20.2 -22.2 84 0.0 5 9   102.39   -27 LegendNANA
02:00 -21.0 -23.3 81 0.0 7 5   102.39   -25 LegendNANA
03:00 -20.7 -23.0 82 0.0 11 4   102.39   -24 LegendNANA
04:00 -22.5 -25.2 79 0.0 13 1   102.38   -23 LegendNANA
05:00 -21.9 -24.6 79 0.2 6 4   102.36   -26 LegendNANA
06:00 -21.5 -24.3 78 0.3 4 7   102.35   -27 LegendNANA
07:00 -18.1 -20.8 80 0.5 0 1   102.34   -19 LegendNANA
08:00 -18.2 -21.2 77 0.4 24 9   102.32   -25 LegendNANA
09:00 -17.3 -20.3 77 0.0 24 10   102.30   -24 LegendNANA
10:00 -14.6 -17.5 79 0.0 17 3   102.28   -17 LegendNANA
11:00 -13.7 -16.5 79 0.4 6 6   102.22   -18 LegendNANA
12:00 -12.6 -15.3 81 0.0 3 15   102.19   -20 LegendNANA
13:00 -11.9 -14.7 79 0.0 2 15   102.16   -19 LegendNANA
14:00 -11.5 -15.3 73 0.0 3 18   102.12   -19 LegendNANA
15:00 -10.9 -13.9 79 0.0 2 19   102.08   -19 LegendNANA
16:00 -10.8 -14.0 77 0.0 2 21   102.07   -19 LegendNANA
17:00 -10.4 -12.4 85 0.0 3 13   102.04   -17 LegendNANA
18:00 -10.1 -12.1 86 0.0 1 18   101.98   -18 LegendNANA
19:00 -10.2 -12.1 86 0.0 1 22   101.91   -18 LegendNANA
20:00 -10.1 -11.8 87 0.0 4 12   101.88   -16 LegendNANA
21:00 -9.8 -11.4 88 0.3 4 16   101.80   -17 LegendNANA
22:00 -9.6 -11.3 87 0.2 1 25   101.71   -18 LegendNANA
23:00 -9.6 -11.3 87 0.0 1 30   101.67   -19 LegendNANA

Notes on Data Quality.

Legend

  • E = Estimated
  • M = Missing
  • NA = Not Available*
  • [empty] = Indicates an unobserved value
Date modified: